owner,sensor,date,latitude,longitude,air_pressure(mBar),qcFlag 
WAVCIS,ioos:station:WAVCIS:CSI03:1,2009-07-01T00:00:00Z,29.4412,-92.0613,1005.154,11111222 
WAVCIS,ioos:station:WAVCIS:CSI03:1,2009-07-01T01:00:00Z,29.4412,-92.0613,1005.409,11111222 
WAVCIS,ioos:station:WAVCIS:CSI03:1,2009-07-01T02:00:00Z,29.4412,-92.0613,1005.676,11111222 
WAVCIS,ioos:station:WAVCIS:CSI03:1,2009-07-01T03:00:00Z,29.4412,-92.0613,1006.157,11111222 
WAVCIS,ioos:station:WAVCIS:CSI03:1,2009-07-01T04:00:00Z,29.4412,-92.0613,1007.09,11111222 
WAVCIS,ioos:station:WAVCIS:CSI03:1,2009-07-01T05:00:00Z,29.4412,-92.0613,1007.17,11111222 
WAVCIS,ioos:station:WAVCIS:CSI03:1,2009-07-01T06:00:00Z,29.4412,-92.0613,1006.677,11111222 
WAVCIS,ioos:station:WAVCIS:CSI03:1,2009-07-01T07:00:00Z,29.4412,-92.0613,1006.776,11111222 
WAVCIS,ioos:station:WAVCIS:CSI03:1,2009-07-01T08:00:00Z,29.4412,-92.0613,1006.56,11111222 
WAVCIS,ioos:station:WAVCIS:CSI03:1,2009-07-01T09:00:00Z,29.4412,-92.0613,1006.658,11111222 
WAVCIS,ioos:station:WAVCIS:CSI03:1,2009-07-01T10:00:00Z,29.4412,-92.0613,1006.752,11111222 
WAVCIS,ioos:station:WAVCIS:CSI03:1,2009-07-01T11:00:00Z,29.4412,-92.0613,1007.17,11111222 
WAVCIS,ioos:station:WAVCIS:CSI03:1,2009-07-01T12:00:00Z,29.4412,-92.0613,1007.59,11111222 
WAVCIS,ioos:station:WAVCIS:CSI03:1,2009-07-01T13:00:00Z,29.4412,-92.0613,1008.16,11111222 
WAVCIS,ioos:station:WAVCIS:CSI03:1,2009-07-01T14:00:00Z,29.4412,-92.0613,1008.95,11111222 
WAVCIS,ioos:station:WAVCIS:CSI03:1,2009-07-01T15:00:00Z,29.4412,-92.0613,1009.24,11111222 
WAVCIS,ioos:station:WAVCIS:CSI03:1,2009-07-01T16:00:00Z,29.4412,-92.0613,1009.4,11111222 
WAVCIS,ioos:station:WAVCIS:CSI03:1,2009-07-01T17:00:00Z,29.4412,-92.0613,1009.52,11111222 
WAVCIS,ioos:station:WAVCIS:CSI03:1,2009-07-01T18:00:00Z,29.4412,-92.0613,1009.46,11111222 
WAVCIS,ioos:station:WAVCIS:CSI03:1,2009-07-01T19:00:00Z,29.4412,-92.0613,1009.06,11111222 
WAVCIS,ioos:station:WAVCIS:CSI03:1,2009-07-01T20:00:00Z,29.4412,-92.0613,1008.66,11111222 
WAVCIS,ioos:station:WAVCIS:CSI03:1,2009-07-01T21:00:00Z,29.4412,-92.0613,1008.41,11111222 
WAVCIS,ioos:station:WAVCIS:CSI03:1,2009-07-01T22:00:00Z,29.4412,-92.0613,1008.35,11111222 
WAVCIS,ioos:station:WAVCIS:CSI03:1,2009-07-01T23:00:00Z,29.4412,-92.0613,1007.94,11111222 
WAVCIS,ioos:station:WAVCIS:CSI03:1,2009-07-02T00:00:00Z,29.4412,-92.0613,1007.92,11111222 
WAVCIS,ioos:station:WAVCIS:CSI03:1,2009-07-02T01:00:00Z,29.4412,-92.0613,1008.12,11111222 
WAVCIS,ioos:station:WAVCIS:CSI03:1,2009-07-02T02:00:00Z,29.4412,-92.0613,1008.72,11111222 
WAVCIS,ioos:station:WAVCIS:CSI03:1,2009-07-02T03:00:00Z,29.4412,-92.0613,1009.33,11111222 
WAVCIS,ioos:station:WAVCIS:CSI03:1,2009-07-02T04:00:00Z,29.4412,-92.0613,1009.57,11111222 
WAVCIS,ioos:station:WAVCIS:CSI03:1,2009-07-02T05:00:00Z,29.4412,-92.0613,1009.62,11111222 
WAVCIS,ioos:station:WAVCIS:CSI03:1,2009-07-02T06:00:00Z,29.4412,-92.0613,1009.45,11111222 
WAVCIS,ioos:station:WAVCIS:CSI03:1,2009-07-02T07:00:00Z,29.4412,-92.0613,1009.45,11111222 
WAVCIS,ioos:station:WAVCIS:CSI03:1,2009-07-02T08:00:00Z,29.4412,-92.0613,1009.53,11111222 
WAVCIS,ioos:station:WAVCIS:CSI03:1,2009-07-02T09:00:00Z,29.4412,-92.0613,1009.85,11111222 
WAVCIS,ioos:station:WAVCIS:CSI03:1,2009-07-02T10:00:00Z,29.4412,-92.0613,1010.48,11111222 
WAVCIS,ioos:station:WAVCIS:CSI03:1,2009-07-02T11:00:00Z,29.4412,-92.0613,1010.88,11111222 
WAVCIS,ioos:station:WAVCIS:CSI03:1,2009-07-02T12:00:00Z,29.4412,-92.0613,1011.44,11111222 
WAVCIS,ioos:station:WAVCIS:CSI03:1,2009-07-02T13:00:00Z,29.4412,-92.0613,1012.07,11111222 
WAVCIS,ioos:station:WAVCIS:CSI03:1,2009-07-02T14:00:00Z,29.4412,-92.0613,1012.86,11111222 
WAVCIS,ioos:station:WAVCIS:CSI03:1,2009-07-02T15:00:00Z,29.4412,-92.0613,1013.12,11111222 
WAVCIS,ioos:station:WAVCIS:CSI03:1,2009-07-02T16:00:00Z,29.4412,-92.0613,1013.6,11111222 
WAVCIS,ioos:station:WAVCIS:CSI03:1,2009-07-02T17:00:00Z,29.4412,-92.0613,1014.0,11111222 
WAVCIS,ioos:station:WAVCIS:CSI03:1,2009-07-02T18:00:00Z,29.4412,-92.0613,1013.36,11111222 
WAVCIS,ioos:station:WAVCIS:CSI03:1,2009-07-02T19:00:00Z,29.4412,-92.0613,1013.12,11111222 
WAVCIS,ioos:station:WAVCIS:CSI03:1,2009-07-02T20:00:00Z,29.4412,-92.0613,1012.76,11111222 
WAVCIS,ioos:station:WAVCIS:CSI03:1,2009-07-02T21:00:00Z,29.4412,-92.0613,1012.99,11111222 
WAVCIS,ioos:station:WAVCIS:CSI03:1,2009-07-02T22:00:00Z,29.4412,-92.0613,1012.49,11111222 
WAVCIS,ioos:station:WAVCIS:CSI03:1,2009-07-02T23:00:00Z,29.4412,-92.0613,1012.34,11111222 
WAVCIS,ioos:station:WAVCIS:CSI03:1,2009-07-03T00:00:00Z,29.4412,-92.0613,1011.87,11111222 
WAVCIS,ioos:station:WAVCIS:CSI03:1,2009-07-03T01:00:00Z,29.4412,-92.0613,1012.34,11111222 
WAVCIS,ioos:station:WAVCIS:CSI03:1,2009-07-03T02:00:00Z,29.4412,-92.0613,1012.26,11111222 
WAVCIS,ioos:station:WAVCIS:CSI03:1,2009-07-03T03:00:00Z,29.4412,-92.0613,1013.23,11111222 
WAVCIS,ioos:station:WAVCIS:CSI03:1,2009-07-03T04:00:00Z,29.4412,-92.0613,1013.62,11111222 
WAVCIS,ioos:station:WAVCIS:CSI03:1,2009-07-03T05:00:00Z,29.4412,-92.0613,1013.5,11111222 
WAVCIS,ioos:station:WAVCIS:CSI03:1,2009-07-03T06:00:00Z,29.4412,-92.0613,1013.29,11111222 
WAVCIS,ioos:station:WAVCIS:CSI03:1,2009-07-03T07:00:00Z,29.4412,-92.0613,1013.8,11111222 
WAVCIS,ioos:station:WAVCIS:CSI03:1,2009-07-03T08:00:00Z,29.4412,-92.0613,1013.28,11111222 
WAVCIS,ioos:station:WAVCIS:CSI03:1,2009-07-03T09:00:00Z,29.4412,-92.0613,1013.79,11111222 
WAVCIS,ioos:station:WAVCIS:CSI03:1,2009-07-03T10:00:00Z,29.4412,-92.0613,1014.27,11111222 
WAVCIS,ioos:station:WAVCIS:CSI03:1,2009-07-03T11:00:00Z,29.4412,-92.0613,1014.78,11111222 
WAVCIS,ioos:station:WAVCIS:CSI03:1,2009-07-03T12:00:00Z,29.4412,-92.0613,1015.44,11111222 
WAVCIS,ioos:station:WAVCIS:CSI03:1,2009-07-03T13:00:00Z,29.4412,-92.0613,1016.04,11111222 
WAVCIS,ioos:station:WAVCIS:CSI03:1,2009-07-03T14:00:00Z,29.4412,-92.0613,1016.65,11111222 
WAVCIS,ioos:station:WAVCIS:CSI03:1,2009-07-03T15:00:00Z,29.4412,-92.0613,1017.09,11111222 
WAVCIS,ioos:station:WAVCIS:CSI03:1,2009-07-03T16:00:00Z,29.4412,-92.0613,1016.95,11111222 
WAVCIS,ioos:station:WAVCIS:CSI03:1,2009-07-03T17:00:00Z,29.4412,-92.0613,1017.03,11111222 
WAVCIS,ioos:station:WAVCIS:CSI03:1,2009-07-03T18:00:00Z,29.4412,-92.0613,1016.91,11111222 
WAVCIS,ioos:station:WAVCIS:CSI03:1,2009-07-03T19:00:00Z,29.4412,-92.0613,1016.4,11111222 
WAVCIS,ioos:station:WAVCIS:CSI03:1,2009-07-03T20:00:00Z,29.4412,-92.0613,1015.61,11111222 
WAVCIS,ioos:station:WAVCIS:CSI03:1,2009-07-03T21:00:00Z,29.4412,-92.0613,1015.06,11111222 
WAVCIS,ioos:station:WAVCIS:CSI03:1,2009-07-03T22:00:00Z,29.4412,-92.0613,1014.75,11111222 
WAVCIS,ioos:station:WAVCIS:CSI03:1,2009-07-03T23:00:00Z,29.4412,-92.0613,1014.23,11111222 
WAVCIS,ioos:station:WAVCIS:CSI03:1,2009-07-04T00:00:00Z,29.4412,-92.0613,1014.23,11111222 
WAVCIS,ioos:station:WAVCIS:CSI03:1,2009-07-04T01:00:00Z,29.4412,-92.0613,1014.55,11111222 
WAVCIS,ioos:station:WAVCIS:CSI03:1,2009-07-04T02:00:00Z,29.4412,-92.0613,1014.77,11111222 
WAVCIS,ioos:station:WAVCIS:CSI03:1,2009-07-04T03:00:00Z,29.4412,-92.0613,1015.0,11111222 
WAVCIS,ioos:station:WAVCIS:CSI03:1,2009-07-04T04:00:00Z,29.4412,-92.0613,1014.93,11111222 
WAVCIS,ioos:station:WAVCIS:CSI03:1,2009-07-04T05:00:00Z,29.4412,-92.0613,1014.68,11111222 
WAVCIS,ioos:station:WAVCIS:CSI03:1,2009-07-04T06:00:00Z,29.4412,-92.0613,1014.43,11111222 
WAVCIS,ioos:station:WAVCIS:CSI03:1,2009-07-04T07:00:00Z,29.4412,-92.0613,1013.91,11111222 
WAVCIS,ioos:station:WAVCIS:CSI03:1,2009-07-04T08:00:00Z,29.4412,-92.0613,1013.67,11111222 
WAVCIS,ioos:station:WAVCIS:CSI03:1,2009-07-04T09:00:00Z,29.4412,-92.0613,1013.95,11111222 
WAVCIS,ioos:station:WAVCIS:CSI03:1,2009-07-04T10:00:00Z,29.4412,-92.0613,1014.26,11111222 
WAVCIS,ioos:station:WAVCIS:CSI03:1,2009-07-04T11:00:00Z,29.4412,-92.0613,1014.54,11111222 
WAVCIS,ioos:station:WAVCIS:CSI03:1,2009-07-04T12:00:00Z,29.4412,-92.0613,1014.94,11111222 
WAVCIS,ioos:station:WAVCIS:CSI03:1,2009-07-04T13:00:00Z,29.4412,-92.0613,1015.45,11111222 
WAVCIS,ioos:station:WAVCIS:CSI03:1,2009-07-04T14:00:00Z,29.4412,-92.0613,1015.88,11111222 
WAVCIS,ioos:station:WAVCIS:CSI03:1,2009-07-04T15:00:00Z,29.4412,-92.0613,1015.95,11111222 
WAVCIS,ioos:station:WAVCIS:CSI03:1,2009-07-04T16:00:00Z,29.4412,-92.0613,1016.07,11111222 
WAVCIS,ioos:station:WAVCIS:CSI03:1,2009-07-04T17:00:00Z,29.4412,-92.0613,1015.92,11111222 
WAVCIS,ioos:station:WAVCIS:CSI03:1,2009-07-04T18:00:00Z,29.4412,-92.0613,1015.69,11111222 
WAVCIS,ioos:station:WAVCIS:CSI03:1,2009-07-04T19:00:00Z,29.4412,-92.0613,1014.84,11111222 
WAVCIS,ioos:station:WAVCIS:CSI03:1,2009-07-04T20:00:00Z,29.4412,-92.0613,1014.38,11111222 
WAVCIS,ioos:station:WAVCIS:CSI03:1,2009-07-04T21:00:00Z,29.4412,-92.0613,1013.49,11111222 
WAVCIS,ioos:station:WAVCIS:CSI03:1,2009-07-04T22:00:00Z,29.4412,-92.0613,1012.94,11111222 
WAVCIS,ioos:station:WAVCIS:CSI03:1,2009-07-04T23:00:00Z,29.4412,-92.0613,1012.43,11111222 
WAVCIS,ioos:station:WAVCIS:CSI03:1,2009-07-05T00:00:00Z,29.4412,-92.0613,1011.77,11111222 
WAVCIS,ioos:station:WAVCIS:CSI03:1,2009-07-05T01:00:00Z,29.4412,-92.0613,1012.26,11111222 
WAVCIS,ioos:station:WAVCIS:CSI03:1,2009-07-05T02:00:00Z,29.4412,-92.0613,1011.76,11111222 
WAVCIS,ioos:station:WAVCIS:CSI03:1,2009-07-05T03:00:00Z,29.4412,-92.0613,1011.62,11111222 
WAVCIS,ioos:station:WAVCIS:CSI03:1,2009-07-05T04:00:00Z,29.4412,-92.0613,1012.13,11111222 
WAVCIS,ioos:station:WAVCIS:CSI03:1,2009-07-05T05:00:00Z,29.4412,-92.0613,1012.52,11111222 
WAVCIS,ioos:station:WAVCIS:CSI03:1,2009-07-05T06:00:00Z,29.4412,-92.0613,1012.59,11111222 
WAVCIS,ioos:station:WAVCIS:CSI03:1,2009-07-05T07:00:00Z,29.4412,-92.0613,1012.31,11111222 
WAVCIS,ioos:station:WAVCIS:CSI03:1,2009-07-05T08:00:00Z,29.4412,-92.0613,1011.6,11111222 
WAVCIS,ioos:station:WAVCIS:CSI03:1,2009-07-05T09:00:00Z,29.4412,-92.0613,1012.02,11111222 
WAVCIS,ioos:station:WAVCIS:CSI03:1,2009-07-05T10:00:00Z,29.4412,-92.0613,1011.83,11111222 
WAVCIS,ioos:station:WAVCIS:CSI03:1,2009-07-05T11:00:00Z,29.4412,-92.0613,1011.75,11111222 
WAVCIS,ioos:station:WAVCIS:CSI03:1,2009-07-05T12:00:00Z,29.4412,-92.0613,1012.16,11111222 
WAVCIS,ioos:station:WAVCIS:CSI03:1,2009-07-05T13:00:00Z,29.4412,-92.0613,1012.39,11111222 
WAVCIS,ioos:station:WAVCIS:CSI03:1,2009-07-05T14:00:00Z,29.4412,-92.0613,1012.68,11111222 
WAVCIS,ioos:station:WAVCIS:CSI03:1,2009-07-05T15:00:00Z,29.4412,-92.0613,1012.56,11111222 
WAVCIS,ioos:station:WAVCIS:CSI03:1,2009-07-05T16:00:00Z,29.4412,-92.0613,1012.69,11111222 
WAVCIS,ioos:station:WAVCIS:CSI03:1,2009-07-05T17:00:00Z,29.4412,-92.0613,1013.01,11111222 
WAVCIS,ioos:station:WAVCIS:CSI03:1,2009-07-05T18:00:00Z,29.4412,-92.0613,1012.87,11111222 
WAVCIS,ioos:station:WAVCIS:CSI03:1,2009-07-05T19:00:00Z,29.4412,-92.0613,1012.21,11111222 
WAVCIS,ioos:station:WAVCIS:CSI03:1,2009-07-05T20:00:00Z,29.4412,-92.0613,1011.64,11111222 
WAVCIS,ioos:station:WAVCIS:CSI03:1,2009-07-05T21:00:00Z,29.4412,-92.0613,1011.22,11111222 
WAVCIS,ioos:station:WAVCIS:CSI03:1,2009-07-05T22:00:00Z,29.4412,-92.0613,1010.91,11111222 
WAVCIS,ioos:station:WAVCIS:CSI03:1,2009-07-05T23:00:00Z,29.4412,-92.0613,1010.35,11111222 
WAVCIS,ioos:station:WAVCIS:CSI03:1,2009-07-06T00:00:00Z,29.4412,-92.0613,1010.28,11111222 
WAVCIS,ioos:station:WAVCIS:CSI03:1,2009-07-06T01:00:00Z,29.4412,-92.0613,1010.46,11111222 
WAVCIS,ioos:station:WAVCIS:CSI03:1,2009-07-06T02:00:00Z,29.4412,-92.0613,1010.48,11111222 
WAVCIS,ioos:station:WAVCIS:CSI03:1,2009-07-06T03:00:00Z,29.4412,-92.0613,1010.8,11111222 
WAVCIS,ioos:station:WAVCIS:CSI03:1,2009-07-06T04:00:00Z,29.4412,-92.0613,1010.74,11111222 
WAVCIS,ioos:station:WAVCIS:CSI03:1,2009-07-06T05:00:00Z,29.4412,-92.0613,1011.29,11111222 
WAVCIS,ioos:station:WAVCIS:CSI03:1,2009-07-06T06:00:00Z,29.4412,-92.0613,1010.9,11111222 
WAVCIS,ioos:station:WAVCIS:CSI03:1,2009-07-06T07:00:00Z,29.4412,-92.0613,1010.53,11111222 
WAVCIS,ioos:station:WAVCIS:CSI03:1,2009-07-06T08:00:00Z,29.4412,-92.0613,1010.46,11111222 
WAVCIS,ioos:station:WAVCIS:CSI03:1,2009-07-06T09:00:00Z,29.4412,-92.0613,1010.21,11111222 
WAVCIS,ioos:station:WAVCIS:CSI03:1,2009-07-06T10:00:00Z,29.4412,-92.0613,1010.02,11111222 
WAVCIS,ioos:station:WAVCIS:CSI03:1,2009-07-06T11:00:00Z,29.4412,-92.0613,1010.08,11111222 
WAVCIS,ioos:station:WAVCIS:CSI03:1,2009-07-06T12:00:00Z,29.4412,-92.0613,1010.09,11111222 
WAVCIS,ioos:station:WAVCIS:CSI03:1,2009-07-06T13:00:00Z,29.4412,-92.0613,1010.22,11111222 
WAVCIS,ioos:station:WAVCIS:CSI03:1,2009-07-06T14:00:00Z,29.4412,-92.0613,1010.88,11111222 
WAVCIS,ioos:station:WAVCIS:CSI03:1,2009-07-06T15:00:00Z,29.4412,-92.0613,1011.15,11111222 
WAVCIS,ioos:station:WAVCIS:CSI03:1,2009-07-06T16:00:00Z,29.4412,-92.0613,1010.86,11111222 
WAVCIS,ioos:station:WAVCIS:CSI03:1,2009-07-06T17:00:00Z,29.4412,-92.0613,1010.87,11111222 
WAVCIS,ioos:station:WAVCIS:CSI03:1,2009-07-06T18:00:00Z,29.4412,-92.0613,1010.47,11111222 
WAVCIS,ioos:station:WAVCIS:CSI03:1,2009-07-06T19:00:00Z,29.4412,-92.0613,1010.43,11111222 
WAVCIS,ioos:station:WAVCIS:CSI03:1,2009-07-06T20:00:00Z,29.4412,-92.0613,1010.12,11111222 
WAVCIS,ioos:station:WAVCIS:CSI03:1,2009-07-06T21:00:00Z,29.4412,-92.0613,1009.54,11111222 
WAVCIS,ioos:station:WAVCIS:CSI03:1,2009-07-06T22:00:00Z,29.4412,-92.0613,1008.83,11111222 
WAVCIS,ioos:station:WAVCIS:CSI03:1,2009-07-06T23:00:00Z,29.4412,-92.0613,1008.23,11111222 
WAVCIS,ioos:station:WAVCIS:CSI03:1,2009-07-07T00:00:00Z,29.4412,-92.0613,1007.45,11111222 
WAVCIS,ioos:station:WAVCIS:CSI03:1,2009-07-07T01:00:00Z,29.4412,-92.0613,1007.68,11111222 
WAVCIS,ioos:station:WAVCIS:CSI03:1,2009-07-07T02:00:00Z,29.4412,-92.0613,1008.25,11111222 
WAVCIS,ioos:station:WAVCIS:CSI03:1,2009-07-07T03:00:00Z,29.4412,-92.0613,1008.94,11111222 
WAVCIS,ioos:station:WAVCIS:CSI03:1,2009-07-07T04:00:00Z,29.4412,-92.0613,1009.51,11111222 
WAVCIS,ioos:station:WAVCIS:CSI03:1,2009-07-07T05:00:00Z,29.4412,-92.0613,1009.37,11111222 
WAVCIS,ioos:station:WAVCIS:CSI03:1,2009-07-07T06:00:00Z,29.4412,-92.0613,1009.15,11111222 
WAVCIS,ioos:station:WAVCIS:CSI03:1,2009-07-07T07:00:00Z,29.4412,-92.0613,1008.73,11111222 
WAVCIS,ioos:station:WAVCIS:CSI03:1,2009-07-07T08:00:00Z,29.4412,-92.0613,1008.31,11111222 
WAVCIS,ioos:station:WAVCIS:CSI03:1,2009-07-07T09:00:00Z,29.4412,-92.0613,1007.48,11111222 
WAVCIS,ioos:station:WAVCIS:CSI03:1,2009-07-07T10:00:00Z,29.4412,-92.0613,1007.95,11111222 
WAVCIS,ioos:station:WAVCIS:CSI03:1,2009-07-07T11:00:00Z,29.4412,-92.0613,1008.23,11111222 
WAVCIS,ioos:station:WAVCIS:CSI03:1,2009-07-07T12:00:00Z,29.4412,-92.0613,1008.94,11111222 
WAVCIS,ioos:station:WAVCIS:CSI03:1,2009-07-07T13:00:00Z,29.4412,-92.0613,1009.44,11111222 
WAVCIS,ioos:station:WAVCIS:CSI03:1,2009-07-07T14:00:00Z,29.4412,-92.0613,1009.89,11111222 
WAVCIS,ioos:station:WAVCIS:CSI03:1,2009-07-07T15:00:00Z,29.4412,-92.0613,1010.08,11111222 
WAVCIS,ioos:station:WAVCIS:CSI03:1,2009-07-07T16:00:00Z,29.4412,-92.0613,1010.1,11111222 
WAVCIS,ioos:station:WAVCIS:CSI03:1,2009-07-07T17:00:00Z,29.4412,-92.0613,1010.35,11111222 
WAVCIS,ioos:station:WAVCIS:CSI03:1,2009-07-07T18:00:00Z,29.4412,-92.0613,1011.05,11111222 
WAVCIS,ioos:station:WAVCIS:CSI03:1,2009-07-07T19:00:00Z,29.4412,-92.0613,1010.97,11111222 
WAVCIS,ioos:station:WAVCIS:CSI03:1,2009-07-07T20:00:00Z,29.4412,-92.0613,1009.61,11111222 
WAVCIS,ioos:station:WAVCIS:CSI03:1,2009-07-07T21:00:00Z,29.4412,-92.0613,1008.32,11111222 
WAVCIS,ioos:station:WAVCIS:CSI03:1,2009-07-07T22:00:00Z,29.4412,-92.0613,1008.08,11111222 
WAVCIS,ioos:station:WAVCIS:CSI03:1,2009-07-07T23:00:00Z,29.4412,-92.0613,1007.89,11111222 
WAVCIS,ioos:station:WAVCIS:CSI03:1,2009-07-08T00:00:00Z,29.4412,-92.0613,1007.74,11111222 
WAVCIS,ioos:station:WAVCIS:CSI03:1,2009-07-08T01:00:00Z,29.4412,-92.0613,1007.84,11111222 
WAVCIS,ioos:station:WAVCIS:CSI03:1,2009-07-08T02:00:00Z,29.4412,-92.0613,1008.24,11111222 
WAVCIS,ioos:station:WAVCIS:CSI03:1,2009-07-08T03:00:00Z,29.4412,-92.0613,1008.77,11111222 
WAVCIS,ioos:station:WAVCIS:CSI03:1,2009-07-08T04:00:00Z,29.4412,-92.0613,1009.2,11111222 
WAVCIS,ioos:station:WAVCIS:CSI03:1,2009-07-08T05:00:00Z,29.4412,-92.0613,1009.56,11111222 
WAVCIS,ioos:station:WAVCIS:CSI03:1,2009-07-08T06:00:00Z,29.4412,-92.0613,1009.07,11111222 
WAVCIS,ioos:station:WAVCIS:CSI03:1,2009-07-08T07:00:00Z,29.4412,-92.0613,1008.58,11111222 
WAVCIS,ioos:station:WAVCIS:CSI03:1,2009-07-08T08:00:00Z,29.4412,-92.0613,1008.19,11111222 
WAVCIS,ioos:station:WAVCIS:CSI03:1,2009-07-08T09:00:00Z,29.4412,-92.0613,1007.97,11111222 
WAVCIS,ioos:station:WAVCIS:CSI03:1,2009-07-08T10:00:00Z,29.4412,-92.0613,1008.12,11111222 
WAVCIS,ioos:station:WAVCIS:CSI03:1,2009-07-08T11:00:00Z,29.4412,-92.0613,1008.38,11111222 
WAVCIS,ioos:station:WAVCIS:CSI03:1,2009-07-08T12:00:00Z,29.4412,-92.0613,1009.95,11111222 
WAVCIS,ioos:station:WAVCIS:CSI03:1,2009-07-08T13:00:00Z,29.4412,-92.0613,1010.6,11111222 
WAVCIS,ioos:station:WAVCIS:CSI03:1,2009-07-08T14:00:00Z,29.4412,-92.0613,1011.08,11111222 
WAVCIS,ioos:station:WAVCIS:CSI03:1,2009-07-08T15:00:00Z,29.4412,-92.0613,1011.46,11111222 
WAVCIS,ioos:station:WAVCIS:CSI03:1,2009-07-08T16:00:00Z,29.4412,-92.0613,1011.04,11111222 
WAVCIS,ioos:station:WAVCIS:CSI03:1,2009-07-08T17:00:00Z,29.4412,-92.0613,1010.85,11111222 
WAVCIS,ioos:station:WAVCIS:CSI03:1,2009-07-08T18:00:00Z,29.4412,-92.0613,1011.11,11111222 
WAVCIS,ioos:station:WAVCIS:CSI03:1,2009-07-08T19:00:00Z,29.4412,-92.0613,1010.17,11111222 
WAVCIS,ioos:station:WAVCIS:CSI03:1,2009-07-08T20:00:00Z,29.4412,-92.0613,1009.93,11111222 
WAVCIS,ioos:station:WAVCIS:CSI03:1,2009-07-08T21:00:00Z,29.4412,-92.0613,1009.84,11111222 
WAVCIS,ioos:station:WAVCIS:CSI03:1,2009-07-08T22:00:00Z,29.4412,-92.0613,1009.77,11111222 
WAVCIS,ioos:station:WAVCIS:CSI03:1,2009-07-08T23:00:00Z,29.4412,-92.0613,1009.44,11111222 
WAVCIS,ioos:station:WAVCIS:CSI03:1,2009-07-09T00:00:00Z,29.4412,-92.0613,1009.43,11111222 
WAVCIS,ioos:station:WAVCIS:CSI03:1,2009-07-09T01:00:00Z,29.4412,-92.0613,1009.99,11111222 
WAVCIS,ioos:station:WAVCIS:CSI03:1,2009-07-09T02:00:00Z,29.4412,-92.0613,1009.76,11111222 
WAVCIS,ioos:station:WAVCIS:CSI03:1,2009-07-09T03:00:00Z,29.4412,-92.0613,1010.27,11111222 
WAVCIS,ioos:station:WAVCIS:CSI03:1,2009-07-09T04:00:00Z,29.4412,-92.0613,1010.61,11111222 
WAVCIS,ioos:station:WAVCIS:CSI03:1,2009-07-09T05:00:00Z,29.4412,-92.0613,1010.67,11111222 
WAVCIS,ioos:station:WAVCIS:CSI03:1,2009-07-09T06:00:00Z,29.4412,-92.0613,1010.75,11111222 
WAVCIS,ioos:station:WAVCIS:CSI03:1,2009-07-09T07:00:00Z,29.4412,-92.0613,1010.72,11111222 
WAVCIS,ioos:station:WAVCIS:CSI03:1,2009-07-09T08:00:00Z,29.4412,-92.0613,1010.57,11111222 
WAVCIS,ioos:station:WAVCIS:CSI03:1,2009-07-09T09:00:00Z,29.4412,-92.0613,1010.73,11111222 
WAVCIS,ioos:station:WAVCIS:CSI03:1,2009-07-09T10:00:00Z,29.4412,-92.0613,1011.05,11111222 
WAVCIS,ioos:station:WAVCIS:CSI03:1,2009-07-09T11:00:00Z,29.4412,-92.0613,1011.4,11111222 
WAVCIS,ioos:station:WAVCIS:CSI03:1,2009-07-09T12:00:00Z,29.4412,-92.0613,1011.96,11111222 
WAVCIS,ioos:station:WAVCIS:CSI03:1,2009-07-09T13:00:00Z,29.4412,-92.0613,1012.58,11111222 
WAVCIS,ioos:station:WAVCIS:CSI03:1,2009-07-09T14:00:00Z,29.4412,-92.0613,1013.31,11111222 
WAVCIS,ioos:station:WAVCIS:CSI03:1,2009-07-09T15:00:00Z,29.4412,-92.0613,1013.82,11111222 
WAVCIS,ioos:station:WAVCIS:CSI03:1,2009-07-09T16:00:00Z,29.4412,-92.0613,1014.07,11111222 
WAVCIS,ioos:station:WAVCIS:CSI03:1,2009-07-09T17:00:00Z,29.4412,-92.0613,1014.36,11111222 
WAVCIS,ioos:station:WAVCIS:CSI03:1,2009-07-09T18:00:00Z,29.4412,-92.0613,1013.99,11111222 
WAVCIS,ioos:station:WAVCIS:CSI03:1,2009-07-09T19:00:00Z,29.4412,-92.0613,1013.75,11111222 
WAVCIS,ioos:station:WAVCIS:CSI03:1,2009-07-09T20:00:00Z,29.4412,-92.0613,1013.45,11111222 
WAVCIS,ioos:station:WAVCIS:CSI03:1,2009-07-09T21:00:00Z,29.4412,-92.0613,1013.42,11111222 
WAVCIS,ioos:station:WAVCIS:CSI03:1,2009-07-09T22:00:00Z,29.4412,-92.0613,1013.17,11111222 
WAVCIS,ioos:station:WAVCIS:CSI03:1,2009-07-09T23:00:00Z,29.4412,-92.0613,1013.2,11111222 
WAVCIS,ioos:station:WAVCIS:CSI03:1,2009-07-10T00:00:00Z,29.4412,-92.0613,1013.38,11111222 
WAVCIS,ioos:station:WAVCIS:CSI03:1,2009-07-10T01:00:00Z,29.4412,-92.0613,1013.49,11111222 
WAVCIS,ioos:station:WAVCIS:CSI03:1,2009-07-10T02:00:00Z,29.4412,-92.0613,1013.43,11111222 
WAVCIS,ioos:station:WAVCIS:CSI03:1,2009-07-10T03:00:00Z,29.4412,-92.0613,1014.34,11111222 
WAVCIS,ioos:station:WAVCIS:CSI03:1,2009-07-10T04:00:00Z,29.4412,-92.0613,1014.76,11111222 
WAVCIS,ioos:station:WAVCIS:CSI03:1,2009-07-10T05:00:00Z,29.4412,-92.0613,1014.83,11111222 
WAVCIS,ioos:station:WAVCIS:CSI03:1,2009-07-10T06:00:00Z,29.4412,-92.0613,1014.89,11111222 
WAVCIS,ioos:station:WAVCIS:CSI03:1,2009-07-10T07:00:00Z,29.4412,-92.0613,1014.81,11111222 
WAVCIS,ioos:station:WAVCIS:CSI03:1,2009-07-10T08:00:00Z,29.4412,-92.0613,1014.78,11111222 
WAVCIS,ioos:station:WAVCIS:CSI03:1,2009-07-10T09:00:00Z,29.4412,-92.0613,1014.91,11111222 
WAVCIS,ioos:station:WAVCIS:CSI03:1,2009-07-10T10:00:00Z,29.4412,-92.0613,1015.1,11111222 
WAVCIS,ioos:station:WAVCIS:CSI03:1,2009-07-10T11:00:00Z,29.4412,-92.0613,1015.25,11111222 
WAVCIS,ioos:station:WAVCIS:CSI03:1,2009-07-10T12:00:00Z,29.4412,-92.0613,1015.75,11111222 
WAVCIS,ioos:station:WAVCIS:CSI03:1,2009-07-10T13:00:00Z,29.4412,-92.0613,1016.17,11111222 
WAVCIS,ioos:station:WAVCIS:CSI03:1,2009-07-10T14:00:00Z,29.4412,-92.0613,1016.56,11111222 
WAVCIS,ioos:station:WAVCIS:CSI03:1,2009-07-10T15:00:00Z,29.4412,-92.0613,1016.69,11111222 
WAVCIS,ioos:station:WAVCIS:CSI03:1,2009-07-10T16:00:00Z,29.4412,-92.0613,1017.16,11111222 
WAVCIS,ioos:station:WAVCIS:CSI03:1,2009-07-10T17:00:00Z,29.4412,-92.0613,1017.51,11111222 
WAVCIS,ioos:station:WAVCIS:CSI03:1,2009-07-10T18:00:00Z,29.4412,-92.0613,1017.49,11111222 
WAVCIS,ioos:station:WAVCIS:CSI03:1,2009-07-10T19:00:00Z,29.4412,-92.0613,1017.29,11111222 
WAVCIS,ioos:station:WAVCIS:CSI03:1,2009-07-10T20:00:00Z,29.4412,-92.0613,1017.16,11111222 
WAVCIS,ioos:station:WAVCIS:CSI03:1,2009-07-10T21:00:00Z,29.4412,-92.0613,1016.86,11111222 
WAVCIS,ioos:station:WAVCIS:CSI03:1,2009-07-10T22:00:00Z,29.4412,-92.0613,1016.61,11111222 
WAVCIS,ioos:station:WAVCIS:CSI03:1,2009-07-10T23:00:00Z,29.4412,-92.0613,1016.03,11111222 
WAVCIS,ioos:station:WAVCIS:CSI03:1,2009-07-11T00:00:00Z,29.4412,-92.0613,1016.29,11111222 
WAVCIS,ioos:station:WAVCIS:CSI03:1,2009-07-11T01:00:00Z,29.4412,-92.0613,1016.66,11111222 
WAVCIS,ioos:station:WAVCIS:CSI03:1,2009-07-11T02:00:00Z,29.4412,-92.0613,1016.88,11111222 
WAVCIS,ioos:station:WAVCIS:CSI03:1,2009-07-11T03:00:00Z,29.4412,-92.0613,1017.44,11111222 
WAVCIS,ioos:station:WAVCIS:CSI03:1,2009-07-11T04:00:00Z,29.4412,-92.0613,1017.81,11111222 
WAVCIS,ioos:station:WAVCIS:CSI03:1,2009-07-11T05:00:00Z,29.4412,-92.0613,1018.03,11111222 
WAVCIS,ioos:station:WAVCIS:CSI03:1,2009-07-11T06:00:00Z,29.4412,-92.0613,1017.73,11111222 
WAVCIS,ioos:station:WAVCIS:CSI03:1,2009-07-11T07:00:00Z,29.4412,-92.0613,1017.64,11111222 
WAVCIS,ioos:station:WAVCIS:CSI03:1,2009-07-11T08:00:00Z,29.4412,-92.0613,1017.06,11111222 
WAVCIS,ioos:station:WAVCIS:CSI03:1,2009-07-11T09:00:00Z,29.4412,-92.0613,1016.89,11111222 
WAVCIS,ioos:station:WAVCIS:CSI03:1,2009-07-11T10:00:00Z,29.4412,-92.0613,1017.02,11111222 
WAVCIS,ioos:station:WAVCIS:CSI03:1,2009-07-11T11:00:00Z,29.4412,-92.0613,1017.68,11111222 
WAVCIS,ioos:station:WAVCIS:CSI03:1,2009-07-11T12:00:00Z,29.4412,-92.0613,1018.17,11111222 
WAVCIS,ioos:station:WAVCIS:CSI03:1,2009-07-11T13:00:00Z,29.4412,-92.0613,1018.54,11111222 
WAVCIS,ioos:station:WAVCIS:CSI03:1,2009-07-11T14:00:00Z,29.4412,-92.0613,1019.02,11111222 
WAVCIS,ioos:station:WAVCIS:CSI03:1,2009-07-11T15:00:00Z,29.4412,-92.0613,1019.16,11111222 
WAVCIS,ioos:station:WAVCIS:CSI03:1,2009-07-11T16:00:00Z,29.4412,-92.0613,1019.49,11111222 
WAVCIS,ioos:station:WAVCIS:CSI03:1,2009-07-11T17:00:00Z,29.4412,-92.0613,1019.58,11111222 
WAVCIS,ioos:station:WAVCIS:CSI03:1,2009-07-11T18:00:00Z,29.4412,-92.0613,1019.7,11111222 
WAVCIS,ioos:station:WAVCIS:CSI03:1,2009-07-11T19:00:00Z,29.4412,-92.0613,1019.11,11111222 
WAVCIS,ioos:station:WAVCIS:CSI03:1,2009-07-11T20:00:00Z,29.4412,-92.0613,1018.37,11111222 
WAVCIS,ioos:station:WAVCIS:CSI03:1,2009-07-11T21:00:00Z,29.4412,-92.0613,1018.07,11111222 
WAVCIS,ioos:station:WAVCIS:CSI03:1,2009-07-11T22:00:00Z,29.4412,-92.0613,1017.6,11111222 